Location: ???????
(56.2167°N, 38.0500°E)
Time: 02:29:04
(UTC+00:00)

Cosmos 1470 - Pass Details

Date: 19 May 2025
Orbit: 456 x 466 km, 82.5° (Epoch: 13 June)

Event Time Altitude Azimuth Distance (km) Brightness Sun altitude
Rises 19:51:46 0° 354° (N) 2,520 7.9 -11.4°
Reaches altitude 10° 19:54:03 10° 6° (N) 1,640 6.3 -11.5°
Maximum altitude 19:57:14 29° 68° (ENE) 895 3.9 -11.6°
Enters shadow 19:59:45 14° 124° (SE) 1,413 4.4 -11.8°
